Tracking 31027 objects as of 19-Jul-2025
HD Live streaming from Space Station
objects crossing your sky now

AUREOLE 2

Track AUREOLE 2 now!
10-day predictions
AUREOLE 2 is classified as:


NORAD ID: 7003
Int'l Code: 1973-107A
Perigee: 336.4 km
Apogee: 593.8 km
Inclination: 73.9 °
Period: 93.7 minutes
Semi major axis: 6836 km
RCS: 2.1042 m2 (large)
Launch date: December 26, 1973
Source: France (FR)
Launch site: PLESETSK MISSILE AND SPACE COMPLEX (PKMTR)
Your satellite tracking list
NSIGHT-1
Track 1 satellite(s)




NASA's NSSDC Master Catalog

Two Line Element Set (TLE):
1 07003U 73107A   25199.55056980  .00016996  00000-0  26614-3 0  9995
2 07003  73.9039 196.4744 0188265 218.8918 139.8621 15.36004507652739
Source of the keplerian elements: AFSPC